Vorticity
5 4 3 3 3 5 5 5 5 5 3 2 2 2 2 3 2 2 2 3 2 2 2 2 2 3 3 3 4 4 8 7 5 5 4 3 4 6 7 7 6 5 7
10 4 5 3 3 3 4 4 4 3 3 2 2 2 3 3 2 2 2 3 2 2 2 3 3 4 3 3 5 5 7 7 5 3 4 2 3 5 8 7 5 4 6
10 8 4 5 3 3 2 3 4 4 4 3 3 3 3 4 3 3 3 3 3 2 2 2 3 4 3 5 5 4 7 7 4 4 5 2 4 5 7 7 5 5 6
7 13 7 5 5 3 3 3 3 4 4 3 4 3 4 5 4 3 4 3 3 2 1 2 3 3 2 6 4 5 9 8 4 4 5 2 2 4 7 8 7 7 6
10 9 11 9 7 5 3 3 3 4 4 3 3 3 5 6 4 5 5 4 3 1 1 3 3 2 2 4 4 4 9 7 5 4 5 2 2 5 6 9 7 7 7
-8 7 10 9 9 8 6 4 4 4 4 3 3 2 5 6 5 6 4 3 2 1 4 6 4 2 2 1 7 2 8 7 5 5 5 3 3 5 6 8 7 7 7
4 -0 4 9 9 6 8 5 4 5 4 4 3 3 6 6 7 5 4 2 1 1 3 6 7 3 3 2 9 4 8 9 4 5 5 4 4 6 6 7 6 7 7
2 1 5 4 8 10 5 5 4 5 4 5 4 4 6 6 8 4 2 1 2 0 3 10 7 4 3 2 8 5 9 8 4 5 6 5 5 6 6 8 5 6 6
3 3 5 3 3 9 9 6 5 6 5 5 5 5 5 7 8 3 1 2 3 5 5 13 7 4 3 3 7 5 9 9 3 5 5 4 5 7 6 8 5 5 6
6 3 4 6 4 5 9 9 8 6 6 6 6 5 6 6 8 2 1 3 1 4 6 13 9 5 4 8 5 6 10 10 4 4 6 6 5 7 6 8 6 5 5
3 9 5 5 7 3 2 8 8 8 6 6 7 5 6 7 6 2 2 1 1 4 7 14 9 6 4 6 5 6 9 8 5 3 4 6 6 7 5 7 7 5 5
4 10 7 1 6 7 2 5 7 9 7 6 5 5 6 8 4 1 2 0 -1 3 6 14 11 8 11 3 5 7 7 7 6 4 5 6 6 7 6 7 7 6 5
3 8 8 7 -1 8 6 1 7 7 7 7 7 6 7 8 3 2 2 2 1 2 3 12 10 8 7 4 6 5 7 6 7 5 5 6 6 7 5 9 8 7 6
6 3 9 10 6 0 10 5 1 7 7 7 8 7 6 7 4 1 3 2 3 3 3 5 13 10 7 3 6 7 8 6 6 5 5 5 6 6 5 10 8 7 7
10 7 6 4 7 6 3 10 5 3 5 7 8 8 7 6 4 1 2 2 2 2 3 4 7 13 8 3 5 7 7 6 5 5 6 6 7 6 4 10 8 7 7
10 14 11 -1 7 8 3 4 9 5 2 6 9 8 8 7 4 2 2 2 3 3 3 1 4 9 10 5 5 8 7 6 5 3 6 6 7 4 5 10 9 8 7
7 9 19 12 1 7 3 8 5 7 4 4 6 9 7 7 5 2 2 4 3 4 4 4 3 5 10 7 4 7 9 6 5 4 6 6 6 4 5 10 10 9 7
11 7 11 13 8 -2 4 0 2 5 5 6 1 9 8 8 6 3 1 2 3 4 3 4 4 7 5 10 7 4 12 6 5 5 5 6 5 4 4 9 11 9 7
6 10 5 12 13 14 2 4 -1 -0 2 1 5 2 8 8 8 4 2 1 2 3 4 2 4 9 8 8 9 5 8 10 6 5 5 5 5 4 5 9 10 10 7
8 5 12 4 1 8 19 17 8 4 -6 -2 3 1 5 8 9 7 3 1 1 2 3 4 4 3 3 7 10 9 5 12 6 6 4 5 6 3 5 7 9 11 7
5 7 5 6 8 9 4 9 10 24 6 -1 -1 5 -0 6 10 9 6 3 1 2 4 3 4 6 4 3 6 11 6 11 9 5 5 5 5 3 4 5 9 10 8
6 8 7 7 4 2 10 6 8 7 25 6 11 7 3 4 4 0 8 5 3 2 3 2 4 5 5 4 3 11 9 9 12 6 5 6 6 2 4 4 9 9 8
5 7 7 5 9 3 3 8 6 3 13 32 1 9 3 10 1 1 5 7 4 3 2 3 2 5 5 3 4 10 12 8 13 7 6 5 5 4 4 4 5 8 8
9 7 6 8 5 6 4 4 4 -0 -5 10 14 9 7 -6 15 4 5 6 4 4 4 3 3 3 5 2 3 12 14 6 12 11 6 5 5 4 3 4 5 8 6
8 5 7 5 7 3 8 5 5 3 6 5 11 -6 33 -5 4 10 12 2 5 5 5 2 3 3 4 4 1 5 16 7 7 14 8 5 5 5 3 2 3 8 6
5 4 5 3 6 7 3 5 4 4 3 5 6 -5 -0 48 15 41 16 13 3 5 -1 3 1 3 3 3 1 -3 6 11 6 10 14 7 5 5 5 3 2 4 8
Height
5881 5882 5883 5885 5885 5886 5888 5889 5890 5890 5888 5886 5887 5887 5888 5888 5888 5889 5889 5889 5890 5890 5889 5888 5888 5887 5885 5884 5883 5881 5879 5878 5877 5876 5875 5873 5871 5868 5865 5862 5859 5856 5854
5882 5881 5883 5884 5886 5887 5888 5891 5891 5891 5890 5887 5887 5889 5889 5890 5890 5890 5890 5890 5891 5891 5891 5890 5889 5888 5886 5885 5883 5882 5880 5879 5878 5877 5876 5873 5871 5869 5866 5862 5859 5857 5855
5879 5881 5882 5883 5884 5887 5888 5890 5892 5892 5890 5889 5889 5890 5890 5891 5891 5891 5891 5891 5891 5892 5891 5891 5890 5889 5887 5886 5884 5882 5880 5879 5879 5878 5876 5874 5872 5869 5866 5863 5861 5858 5856
5880 5882 5882 5882 5884 5887 5888 5890 5891 5892 5890 5889 5890 5890 5891 5892 5892 5892 5892 5892 5892 5892 5892 5892 5891 5890 5888 5886 5884 5883 5881 5879 5878 5878 5876 5875 5872 5869 5866 5864 5862 5859 5857
5878 5880 5881 5881 5883 5886 5887 5889 5891 5892 5890 5890 5891 5891 5892 5893 5893 5893 5892 5893 5893 5893 5893 5893 5891 5890 5889 5887 5885 5883 5881 5879 5879 5877 5876 5875 5872 5869 5867 5864 5862 5859 5857
5876 5879 5881 5882 5882 5884 5886 5888 5890 5891 5890 5891 5892 5892 5893 5894 5893 5893 5893 5894 5894 5893 5893 5892 5891 5891 5889 5887 5885 5883 5880 5879 5878 5877 5876 5875 5873 5870 5868 5864 5862 5859 5858
5876 5878 5879 5880 5882 5883 5884 5888 5889 5890 5889 5891 5892 5893 5893 5894 5894 5893 5894 5894 5894 5893 5892 5890 5890 5890 5888 5887 5885 5883 5880 5879 5878 5878 5877 5875 5873 5871 5868 5866 5862 5860 5859
5875 5878 5878 5878 5879 5882 5883 5886 5887 5888 5888 5890 5891 5892 5893 5893 5893 5893 5893 5894 5893 5893 5891 5889 5889 5888 5887 5886 5884 5883 5881 5880 5879 5879 5877 5876 5874 5871 5868 5866 5863 5861 5859
5873 5875 5876 5876 5877 5879 5881 5884 5884 5885 5886 5888 5890 5891 5892 5893 5893 5893 5893 5894 5893 5892 5890 5888 5888 5887 5887 5885 5883 5883 5881 5880 5879 5878 5877 5876 5873 5871 5868 5867 5864 5862 5860
5869 5871 5873 5874 5875 5876 5879 5881 5881 5882 5884 5886 5888 5890 5891 5891 5892 5893 5893 5893 5893 5891 5889 5886 5886 5886 5886 5885 5883 5883 5881 5880 5879 5878 5877 5875 5873 5871 5869 5867 5864 5862 5860
5866 5868 5869 5871 5873 5873 5876 5878 5878 5880 5882 5883 5885 5888 5889 5891 5891 5892 5892 5892 5892 5891 5889 5886 5885 5885 5885 5885 5883 5883 5881 5879 5879 5878 5876 5875 5873 5871 5869 5866 5864 5863 5860
5859 5862 5865 5868 5869 5871 5873 5874 5876 5878 5879 5881 5883 5886 5887 5889 5890 5891 5891 5891 5891 5890 5888 5886 5884 5884 5885 5884 5883 5881 5881 5879 5878 5877 5875 5874 5873 5871 5868 5866 5863 5862 5861
5852 5856 5859 5863 5866 5868 5870 5871 5874 5875 5877 5879 5882 5883 5885 5888 5889 5890 5890 5890 5890 5889 5888 5886 5884 5883 5883 5882 5881 5880 5879 5878 5877 5876 5875 5873 5872 5870 5868 5865 5864 5862 5860
5848 5851 5855 5858 5862 5864 5866 5868 5871 5872 5874 5878 5880 5881 5882 5885 5887 5888 5889 5889 5888 5888 5887 5886 5884 5884 5882 5881 5881 5879 5879 5878 5876 5876 5874 5873 5871 5869 5867 5865 5863 5862 5860
5843 5847 5850 5854 5856 5859 5862 5865 5867 5869 5872 5876 5877 5879 5881 5882 5884 5887 5887 5887 5887 5886 5886 5885 5883 5883 5882 5880 5879 5878 5877 5877 5876 5875 5874 5872 5870 5868 5867 5865 5863 5862 5861
5839 5842 5844 5849 5852 5855 5859 5861 5862 5865 5868 5872 5874 5876 5878 5880 5882 5884 5885 5886 5885 5885 5885 5884 5883 5882 5881 5880 5877 5876 5876 5875 5874 5873 5873 5871 5870 5868 5867 5865 5863 5861 5859
5834 5837 5840 5844 5848 5850 5854 5855 5858 5861 5863 5867 5870 5873 5874 5877 5880 5882 5883 5883 5883 5883 5883 5882 5882 5881 5879 5879 5878 5875 5874 5874 5872 5872 5871 5870 5869 5867 5865 5864 5862 5861 5859
5829 5832 5834 5838 5843 5845 5848 5849 5852 5857 5858 5863 5865 5871 5870 5874 5877 5879 5881 5881 5881 5881 5881 5881 5880 5879 5877 5876 5875 5875 5873 5871 5871 5871 5870 5869 5868 5867 5864 5863 5862 5861 5858
5824 5827 5830 5832 5836 5840 5842 5845 5847 5852 5854 5858 5860 5866 5866 5870 5873 5875 5877 5878 5879 5878 5878 5878 5878 5877 5876 5874 5873 5872 5872 5871 5870 5869 5869 5868 5867 5866 5864 5863 5861 5860 5857
5819 5822 5824 5827 5829 5834 5836 5838 5841 5846 5852 5855 5855 5860 5863 5865 5868 5871 5873 5874 5875 5875 5876 5876 5875 5875 5874 5872 5871 5870 5869 5868 5868 5868 5866 5866 5866 5864 5863 5862 5860 5859 5856
5809 5814 5819 5821 5824 5828 5833 5833 5835 5839 5845 5849 5848 5853 5857 5859 5863 5866 5868 5869 5871 5871 5872 5872 5872 5872 5872 5870 5869 5867 5866 5865 5865 5865 5865 5864 5863 5862 5861 5860 5859 5857 5854
5802 5808 5811 5816 5817 5821 5827 5829 5829 5831 5835 5843 5843 5846 5851 5853 5856 5859 5862 5864 5866 5867 5868 5869 5869 5869 5869 5868 5866 5865 5863 5863 5863 5862 5862 5862 5862 5859 5859 5858 5857 5855 5853
5795 5798 5803 5808 5812 5813 5820 5821 5823 5825 5830 5835 5836 5836 5842 5847 5850 5854 5856 5858 5860 5862 5863 5865 5865 5865 5865 5864 5864 5862 5860 5859 5859 5858 5858 5859 5858 5858 5857 5855 5853 5852 5851
5785 5788 5792 5800 5805 5808 5811 5815 5818 5820 5824 5827 5829 5831 5832 5838 5843 5846 5849 5852 5856 5857 5858 5859 5861 5861 5861 5861 5860 5859 5857 5856 5855 5855 5855 5855 5855 5854 5854 5854 5853 5851 5847
5773 5778 5786 5791 5797 5803 5805 5809 5811 5813 5817 5822 5825 5826 5826 5828 5835 5839 5842 5844 5848 5852 5853 5854 5855 5856 5857 5858 5857 5856 5854 5853 5852 5850 5851 5851 5851 5850 5849 5849 5849 5849 5846
5765 5771 5778 5783 5788 5793 5797 5802 5804 5807 5810 5815 5819 5822 5822 5821 5825 5826 5833 5836 5837 5843 5846 5846 5848 5850 5851 5852 5853 5853 5852 5850 5849 5848 5846 5847 5846 5846 5845 5844 5844 5844 5843